www.pogodaiklimat.ru

Погода и климат >> Архив погоды >> Индонезия >> Лабуха


ПОГОДА в Лабухе

  • Прогноз погоды в Лабухе
  • Монитор погоды в Лабухе

АРХИВ ПОГОДЫ в Лабухе

Время (UTC), дата Ветер
(напр.,м/с)
 
Видим.   Явления Облачность Т
(С)
Тd
(С)
f
(%)
Тe
(С)
Тes
(С)
Комфортность P
(гПа)
Po
(гПа)
Тmin
(С)
Tmax
(С)
R
(мм)
R24
(мм)
S
(см)
12 13.05 штиль 0 10 км 4/1 570 м
[Cu med, cong Ac trans Ci sp]
+27.0 +24.3 85 +38 +38 очень
душно
1011.5 1009.3 +31.8
15 13.05 штиль 0 10 км 4/1 570 м
[Cu med, cong Ac trans Ci sp]
+25.2 +22.2 83 +33 +33 очень
душно
1011.4 1009.2
18 13.05 штиль 0 10 км 4/1 570 м
[Cu med, cong Ac trans Ci sp]
+23.8 +21.3 86 +30 +30 очень
душно
1010.3 1008.1
21 13.05 штиль 0 10 км 4/1 570 м
[Cu med, cong Ac trans Ci sp]
+23.0 +21.4 91 +31 +31 очень
душно
1010.5 1008.3
00 14.05 С 1 12 км 3/1 600 м
[Cu med, cong Ac trans Ci sp]
+28.2 +23.8 77 +39 +45 очень
душно
1012.2 1010.0 +23.0
03 14.05 З 3 12 км 4/1 600 м
[Cu med, cong Ac trans Ci sp]
+31.2 +22.7 61 +41 +54 опасность
перегрева
1010.6 1008.4
06 14.05 ЮВ 1 6000 м слаб. дождь 9/5 500 м
[Cb calv Ac As Cs]
+28.2 +25.0 83 +41 +45 опасность
перегрева
1008.8 1006.7 1
09 14.05 Ю 1 9000 м в посл. час дождь 9/4 540 м
[Cu Sc Ac As Cs]
+28.8 +26.2 86 +44 +44 опасность
перегрева
1009.4 1007.3 3
12 14.05 СВ 1 9000 м {дождь} 9/4 540 м
[Cu Sc Ac As Ci sp]
+26.6 +25.1 91 +38 +38 очень
душно
1011.0 1008.8 +31.8 2
15 14.05 штиль 0 9000 м 5/1 570 м
[Cu med, cong Ac trans Ci sp]
+24.6 +23.0 91 +33 +33 очень
душно
1010.9 1008.8
18 14.05 штиль 0 10 км 5/1 570 м
[Cu med, cong Ac trans Ci sp]
+23.8 +22.5 92 +31 +31 очень
душно
1009.8 1007.8
21 14.05 штиль 0 10 км 5/1 570 м
[Cu med, cong Ac trans Ci sp]
+23.2 +21.9 92 +31 +31 очень
душно
1010.9 1007.8
00 15.05 штиль 0 9000 м 5/3 540 м
[Cu med, cong Ac As Cs]
+28.2 +25.0 83 +41 +47 опасность
перегрева
1012.7 1010.6 +23.4 1
03 15.05 З 2 9000 м 5/3 540 м
[Cu med, cong Ac As Cs]
+31.2 +22.7 61 +41 +53 опасность
перегрева
1011.5 1009.3
06 15.05 ЮЗ 3 9000 м 5/3 540 м
[Cu Sc Ac As Cs]
+31.2 +24.6 68 +44 +50 опасность
перегрева
1009.4 1007.2
09 15.05 ЮЗ 3 8000 м 8/5 500 м
[Cb calv Ac As Cs]
+28.8 +25.0 80 +42 +42 опасность
перегрева
1010.3 1008.1
12 15.05 штиль 0 9000 м 6/4 540 м
[Cu Sc Ac As Cs]
+26.4 +24.9 91 +38 +38 очень
душно
1011.9 1009.7 +31.2
15 15.05 штиль 0 9000 м 6/3 540 м
[Cu Sc Ac As Ci sp]
+24.6 +23.0 91 +33 +33 очень
душно
1011.4 1009.3
18 15.05 штиль 0 9000 м 6/3 540 м
[Cu Sc Ac As Ci sp]
+23.9 +22.5 92 +31 +31 очень
душно
1009.3 1007.1
21 15.05 штиль 0 9000 м 6/3 540 м
[Cu Sc Ac As Ci sp]
+23.0 +22.3 96 +31 +31 очень
душно
1010.0 1007.8
00 16.05 штиль 0 10 км 5/3 540 м
[Cu Sc Ac As Ci sp]
+28.1 +24.6 81 +40 +46 очень
душно
1011.5 1009.4 +23.0
03 16.05 З 3 10 км 8/5 540 м
[Cu Sc Ac As Ci sp]
+31.1 +24.5 68 +44 +50 опасность
перегрева
1010.3 1008.1
06 16.05 З 4 9000 м гроза без осадков 8/5 500 м
[Cb calv Ac As Ci sp]
+31.2 +25.2 70 +45 +48 опасность
перегрева
1008.4 1006.2
09 16.05 ЮЗ 2 9000 м {гроза} 6/4 500 м
[Cu Sc Ac As Ci sp]
+29.8 +24.6 74 +42 +43 опасность
перегрева
1008.9 1006.7
12 16.05 штиль 0 9000 м 6/4 500 м
[Cu Sc Ac As Ci sp]
+27.0 +24.9 88 +39 +39 очень
душно
1010.3 1008.1 +31.5
15 16.05 штиль 0 9000 м 6/3 540 м
[Cu Sc Ac As Ci sp]
+25.6 +24.4 93 +36 +36 очень
душно
1010.2 1008.1
18 16.05 штиль 0 9000 м 6/3 540 м
[Cu Sc Ac As Ci sp]
+26.0 +23.9 88 +36 +36 очень
душно
1009.2 1007.0
21 16.05 штиль 0 9000 м {дождь} 6/3 540 м
[Cu Sc Ac As Ci sp]
+25.2 +24.4 95 +35 +35 очень
душно
1009.6 1007.4 2
00 17.05 штиль 0 9000 м 8/4 500 м
[Cu Sc Ac As Cs]
+28.4 +25.8 86 +42 +46 опасность
перегрева
1011.2 1009.1 +24.8 2
03 17.05 ЮЗ 4 10 км 6/3 500 м
[Cu Sc Ac trans Ci sp]
+30.6 +24.3 69 +43 +50 опасность
перегрева
1010.4 1008.2
06 17.05 З 1 10 км 6/3 500 м
[Cu Sc Ac trans Ci sp]
+30.0 +24.2 71 +42 +50 опасность
перегрева
1007.9 1005.8
09 17.05 СЗ 2 9000 м {дождь} 6/4 500 м
[Cu Sc Ac As Ci sp]
+28.8 +24.1 76 +40 +40 очень
душно
1009.2 1007.0 0.1
12 17.05 штиль 0 9000 м 5/3 540 м
[Cu Sc Ac trans Ci sp]
+26.8 +25.0 90 +39 +39 очень
душно
1010.6 1008.4 +32.4 0.1
15 17.05 штиль 0 9000 м 5/3 540 м
[Cu Sc Ac trans Ci sp]
+24.8 +22.6 88 +33 +33 очень
душно
1011.5 1009.3
18 17.05 штиль 0 9000 м 5/3 500 м
[Cu Sc Ac trans Ci sp]
+24.2 +22.6 91 +32 +32 очень
душно
1009.7 1007.5
21 17.05 Ю 1 9000 м 8/5 500 м
[Cu Sc Ac As Ci sp]
+24.2 +22.9 92 +32 +32 очень
душно
1010.3 1008.1
00 18.05 З 2 10 км 6/4 540 м
[Cu Sc Ac trans Ci sp]
+29.2 +24.9 78 +42 +46 опасность
перегрева
1012.1 1009.9 +22.0 0.7
03 18.05 СЗ 3 10 км 6/4 540 м
[Cu Sc Ac trans Ci sp]
+30.6 +24.7 71 +43 +52 опасность
перегрева
1011.6 1009.4
06 18.05 ЮЗ 3 10 км 5/3 540 м
[Cu Sc Ac trans Ci sp]
+31.4 +22.3 59 +41 +47 опасность
перегрева
1009.3 1007.1
09 18.05 ЮЗ 3 10 км 5/3 540 м
[Cu Sc Ac trans Ci sp]
+29.0 +24.1 75 +40 +41 очень
душно
1009.3 1007.2
12 18.05 штиль 0 10 км 4/1 570 м
[Cu med, cong Ac trans Ci sp]
+27.0 +24.0 84 +37 +37 очень
душно
1011.1 1008.9 +31.8
15 18.05 штиль 0 10 км 4/1 570 м
[Cu med, cong Ac trans Ci sp]
+25.0 +22.9 88 +33 +33 очень
душно
1011.9 1009.7
18 18.05 штиль 0 10 км 5/3 570 м
[Cu med, cong Ac trans Ci sp]
+24.2 +21.7 86 +31 +31 очень
душно
1011.4 1009.3
21 18.05 штиль 0 10 км 5/3 540 м
[Cu Sc Ac trans Ci sp]
+23.4 +21.8 91 +32 +32 очень
душно
1010.9 1008.7
00 19.05 СЗ 1 9000 м 6/4 540 м
[Cu Sc Ac As Ci sp]
+27.8 +25.2 86 +40 +45 очень
душно
1012.3 1010.1 +23.2
03 19.05 З 2 10 км 4/1 570 м
[Cu med, cong Ac trans Ci sp]
+31.2 +24.3 67 +43 +58 опасность
перегрева
1011.5 1009.4
06 19.05 ЮЗ 4 10 км 4/1 570 м
[Cu med, cong Ac trans Ci sp]
+31.2 +24.3 67 +43 +50 опасность
перегрева
1009.7 1007.6
09 19.05 З 1 10 км 6/4 570 м
[Cu med, cong Ac trans Ci sp]
+29.4 +24.2 74 +41 +41 опасность
перегрева
1010.1 1007.9
12 19.05 штиль 0 10 км 6/3 570 м
[Cu med, cong Ac trans Ci sp]
+26.4 +23.4 84 +36 +36 очень
душно
1011.6 1009.4 +32.0
15 19.05 штиль 0 10 км 6/3 570 м
[Cu med, cong Ac trans Ci sp]
+24.6 +22.4 88 +32 +32 очень
душно
1012.3 1010.1
18 19.05 штиль 0 10 км 6/3 570 м
[Cu med, cong Ac trans Ci sp]
+24.0 +21.8 88 +31 +31 очень
душно
1010.3 1008.1
21 19.05 штиль 0 10 км 6/3 540 м
[Cu Sc Ac trans Ci sp]
+22.9 +21.5 92 +31 +31 очень
душно
1010.4 1008.2
00 20.05 СВ 1 10 км 6/1 570 м
[Cu med, cong Ac As Ci sp]
+27.0 +23.6 82 +37 +42 очень
душно
1011.8 1009.7 +22.8
03 20.05 З 3 10 км 6/1 570 м
[Cu med, cong Ac As Ci sp]
+31.0 +23.9 66 +43 +54 опасность
перегрева
1011.0 1008.8
06 20.05 З 2 10 км 6/1 570 м
[Cu med, cong Ac As Ci sp]
+31.6 +22.7 59 +41 +49 опасность
перегрева
1009.0 1006.8
09 20.05 З 3 10 км 6/1 570 м
[Cu med, cong Ac As Ci sp]
+30.4 +24.1 69 +42 +42 опасность
перегрева
1009.2 1007.0

 

Местоположение метеостанции Лабуха (Индонезия): широта -0.63 долгота 127.50 высота над уровнем моря 3 м.

В архиве по умолчанию представлена погода в Лабухе за последнюю неделю. Архивные данные за месяц целиком и за предыдущие месяцы, начиная с января 2011 года, Вы можете получить, выбрав интересующий диапазон дат из раскрывающегося списка и нажав кнопку "Ввод!".


*Определитесь, кто Вы:
робот инопланетянин человек

Внимание! Время в таблицах - всемирное. Для получения местного времени необходимо прибавить поправку, которая равна 9 ч.

Смотрите также архив погоды в соседних городах и на ближайших метеорологических станциях:

Погода в Тернате (Индонезия) (156 км)
Погода на Санане (Индонезия) (232 км)
Погода в Голеа (Индонезия) (275 км)
Погода в Намлеа (Индонезия) (295 км)
Погода в Амахаи (Индонезия) (339 км)
Погода в Битунге (Индонезия) (345 км)
Погода в Амбоне (Индонезия) (347 км)
Погода в Менадо (Индонезия) (375 км)
Погода в Тауне (Индонезия) (398 км)
Погода в Аэропорту Соронг-Джефман (Индонезия) (403 км)

Пояснения к столбцам:

Ветер - указаны скорость ветра в м/с - средняя за 10 мин, порывы в срок и между сроками (в фигурных скобках) и направление, откуда дует ветер: С - северный, СВ - северо-восточный, В - восточный, ЮВ - юго-восточный, Ю - южный, ЮЗ - юго-западный, З - западный, СЗ - северо-западный.
Видимость - горизонтальная дальность видимости в метрах или километрах. При видимости от 1 до 10 км при отсутствии осадков обычно наблюдается дымка, при ухудшении видимости до 1 км и менее - туман. В сухую погоду видимость может ухудшаться дымом, пылью или мглою.
Явления - указаны атмосферные явления, наблюдавшиеся в срок или в последний час перед сроком; фигурными скобками обозначены явления, наблюдавшиеся между сроками (за 1-3 часа до срока); квадратными скобками обозначены град или гололедные отложения с указанием их диаметра в мм.
Облачность - указаны через наклонную черту общая и нижняя облачность в баллах и высота нижней границы облаков в метрах; квадратными скобками обозначены формы облаков: Ci - перистые, Cs - перисто-слоистые, Cc - перисто-кучевые, Ac - высококучевые, As - высокослоистые, Sc - слоисто-кучевые, Ns - слоисто-дождевые, Cu - кучевые, Cb - кучево-дождевые. Подробнее классификацию облаков см. в Атласе облаков (PDF).
T - Температура воздуха - температура, измеренная на высоте 2 м над землей.
Td - Температура точки росы - температура, при понижении до которой содержащийся в воздухе водяной пар достигнет насыщения.
f - Относительная влажность воздуха - влажноcть воздуха, измеренная на высоте 2 м над землей.
Te - Эффективная температура - температура, которую ощущает одетый по сезону человек в тени. Характеристика душности погоды. При расчете учитывается влияние влажности воздуха и скорости ветра на теплоощущения человека.
Tes - Эффективная температура на солнце - температура, которую ощущает человек, с поправкой на солнечный нагрев. Характеристика знойности погоды. Зависит от высоты солнца над горизонтом, облачности и скорости ветра. Ночью, в пасмурную погоду, а также при ветре 12 м/с и более поправка равна нулю.
P - Атмосферное давление - приведенное к уровню моря атмосферное давление.
Po - Атмосферное давление - измеренное на уровне метеостанции атмосферное давление.
Tmin - Минимальная температура - минимум температуры воздуха на высоте 2 м над землей.
Tmax - Максимальная температура - максимум температуры воздуха на высоте 2 м над землей.
R - Количество осадков - Количество выпавших осадков за период времени, мм. При наведении курсора мыши на число - период времени, за который выпало указанное количество осадков.
R24 - Количество осадков - Количество выпавших осадков за 24 часа, мм.
S - Снежный покров - Высота снежного покрова, см. При наведении курсора мыши на число - состояние снежного покрова и степень покрытия местности в баллах.